STARLINK-1029, 44734

Orbit data source: Space-Track

STARLINK-1029, 44734 is a payload satellite owned by SpaceX/Seattle (US) in LEO that was launched on Mon, 11 Nov 2019 UTC via an FALCON 9 launch vehicle from the Air Force Eastern Test Range (AFETR). Payload-class satellites include a variety of spacecraft equipped with specific instruments for various scientific and technological missions. These include communications satellites like Starlink; space stations such as the ISS; scientific satellites like the Hubble; Earth observation satellites from companies like Planet Labs, Umbra, and HawkEye 360; GPS; miniature CubeSats for education and research; and military/defense satellites.

Not visible in the next 10 days
Identifier
44734, 2019-074X
Orbit
LEO
Country
Flag of USUS
Related business
Manufacturer
SpaceX/Seattle
Mission
Partially operational Commercial Communications
Bus & Motor
STARLINK, Unknown motor
Mass
260 kg wet, ~248 kg dry
Launch date (UTC)
2019-11-11 (6 years ago)
Launch vehicle
FALCON 9
Launch site
Air Force Eastern Test Range (AFETR)
Object type
Payload
Rocket body
Debris
Shape & HBR
Box + 1 Pan, 10.1 m
Radar Cross Section
13.562 m², Large (>1 m²)

Expand to show TLE details & history
Last TLE update: 13 hours ago

TLE from 13 hours ago
0 STARLINK-1029
1 44734U 19074X   25286.58886291  .01031517  67829-3  88537-3 0  9990
2 44734  53.0463 338.3171 0005333  17.6329 342.4890 16.12883154328634
Epoch: 2025-10-13T14:07Z
TLE epoch observation values (Epoch: 2025-10-13T14:07:57.755Z)
Latitude
-0.00003°
Longitude
103.93695°
Altitude
236.5 km
Speed
7.768 km/s
True Right ascension
22h 33m 16s
True Declination
0° 00' 00"
Sunlit
Object was in full shadow at epoch
Visualization orbit readout
Latitude
Unknown
Longitude
Unknown
Altitude
Unknown
Speed
Unknown
Apparent Right ascension
Unknown
Apparent Declination
Unknown
Sunlit
N/A
Visualization observer readout
Local Sidereal Time
21:23:26
Azimuth
Unknown
Elevation
Unknown
Doppler factor
Unknown
Orbital elements
Apogee altitude
242.759 km
Perigee altitude
235.701 km
Semi-major axis
6,617.367 km
Eccentricity
0.00053
Inclination
53.0463°
RAAN
338.3171°
Arg. of periapsis
17.6329°
True anomaly
342.4706°
Mean anomaly
342.489°
Eccentric anomaly
342.4798°
Mean motion
4.03195 °/min
Orbital period
89.29 mins
BSTAR
0.00088537
Loading maneuver chart data...
Computing Atmospheric mass density...
Loading historical data...
Loading historical data...
Loading historical data...
Loading historical data...
Loading historical data...
Loading historical data...
Loading historical data...

Documentation

Showing up to 5 results
|